Flag for Austria Weather past 2 weeks in Stockerau, Lower Austria, Austria

Now
77 °F

Scattered clouds.


Feels Like: 79 °F
Forecast: 54 / 78 °F
Wind: 10 mph from West

Location: Tulln Airport

Current Time: Jul 24, 2014 at 1:22:32 PM

Latest Report: Jul 24, 2014 at 12:50 PM


Visibility: 25 mi

Pressure: 29.86 "Hg

Humidity: 51%

Dew point: 57 °F

Location of StockerauLocation

Historic Weather in Stockerau — Graph

°F

Stockerau temperature yesterday

Maximum temperature yesterday: 84 °F (at 12:50 PM)
Minimum temperature yesterday: 63 °F (at 5:50 AM)
Average temperature yesterday: 72 °F

Past Weeks' High & Low Weather Summary

 TemperatureHumidityPressure
High91 °F (Jul 20, 1:50 PM)100% (Jul 10, 12:50 PM)30.15 "Hg (Jul 10, 12:50 PM)
Low50 °F (Jul 10, 12:50 PM)33% (Jul 18, 2:50 PM)29.71 "Hg (Jul 9, 2:50 PM)
Average73 °F66%29.92 "Hg
* Reported Jul 9 2:50 PM — Jul 24 11:50 AM, Stockerau, Weather by CustomWeather, © 2014

Note: Actual official high and low records may vary slightly from our data, if they occured in-between our weather recording intervals... More about our weather records

Advertising

Stockerau weather history for previous 24 hours

 ConditionsComfort  
Time TempWeatherWind HumidityBarometerVisibility
11:50 AM
Jul 24
75 °FPartly sunny.8 mph54%29.86 "Hg25 mi
10:50 AM73 °FPartly sunny.7 mph61%29.89 "Hg25 mi
9:50 AM72 °FScattered clouds.7 mph61%29.89 "Hg25 mi
8:50 AM68 °FPassing clouds.8 mph73%29.89 "Hg25 mi
7:50 AM63 °FPassing clouds.8 mph83%29.92 "Hg19 mi
6:50 AM59 °FPassing clouds.7 mph94%29.92 "Hg16 mi
5:50 AM57 °FPassing clouds.3 mph94%29.92 "Hg12 mi
10:50 PM
Jul 23
63 °FPassing clouds.6 mph88%29.92 "Hg16 mi
9:50 PM64 °FPassing clouds.8 mph88%29.92 "Hg16 mi
8:50 PM66 °FScattered clouds.7 mph78%29.92 "Hg19 mi
7:50 PM70 °FBroken clouds.9 mph64%29.92 "Hg19 mi
6:50 PM72 °FPartly sunny.8 mph61%29.92 "Hg19 mi
5:50 PM73 °FPartly sunny.7 mph53%29.89 "Hg19 mi
4:50 PM72 °FPartly sunny.10 mph69%29.86 "Hg22 mi
3:50 PM84 °FScattered clouds.8 mph40%29.83 "Hg22 mi
2:50 PM81 °FScattered clouds.12 mph39%29.86 "Hg22 mi
Weather by CustomWeather, © 2014

See weather overviewHow to use our weather pages